CDT,Max TemperatureF,Mean TemperatureF,Min TemperatureF,Max Dew PointF,MeanDew PointF,Min DewpointF,Max Humidity, Mean Humidity, Min Humidity, Max Sea Level PressureIn, Mean Sea Level PressureIn, Min Sea Level PressureIn, Max VisibilityMiles, Mean VisibilityMiles, Min VisibilityMiles, Max Wind SpeedMPH, Mean Wind SpeedMPH, Max Gust SpeedMPH,PrecipitationIn, CloudCover, Events, WindDirDegrees
2013-4-1,40,32,24,24,20,17,81,63,44,30.28,30.19,30.03,10,10,10,23,13,31,0.00,1,,317
2013-4-2,44,32,20,23,19,14,91,62,32,30.37,30.32,30.28,10,10,8,22,10,28,0.00,0,,302
2013-4-3,48,33,17,19,16,13,84,55,25,30.47,30.39,30.30,10,10,10,13,6,18,0.00,0,,95
2013-4-4,61,45,28,36,25,15,79,53,27,30.29,30.14,30.02,10,9,7,18,9,23,0.00,0,,248
2013-4-5,55,42,28,31,25,20,85,56,26,30.24,30.14,30.04,10,9,5,24,10,29,0.00,1,,72
2013-4-6,70,55,39,50,36,17,86,59,31,30.03,29.75,29.60,10,9,2,35,19,44,0.18,4,Rain-Thunderstorm,198
2013-4-7,63,49,35,41,38,33,92,68,43,29.96,29.87,29.75,10,6,2,22,8,28,0.00,1,,312
2013-4-8,72,60,47,55,49,39,100,75,49,29.89,29.70,29.52,10,5,1,29,11,35,0.94,5,Rain,254
2013-4-9,74,58,42,60,49,40,93,79,64,29.91,29.84,29.76,10,4,2,25,15,30,0.12,6,Rain-Thunderstorm,84
2013-4-10,42,40,37,40,38,35,100,95,89,30.01,29.86,29.67,10,6,1,37,17,44,1.44,8,Rain-Thunderstorm,58
2013-4-11,47,42,36,45,40,32,96,89,82,29.72,29.62,29.59,10,4,1,24,13,31,0.08,8,Rain,190
2013-4-12,40,38,35,36,33,30,92,81,70,29.92,29.72,29.59,10,8,2,28,16,35,T,8,,263
2013-4-13,49,41,33,37,31,27,82,68,54,30.01,29.96,29.91,10,10,10,25,12,30,T,7,,280
2013-4-14,74,57,40,55,45,33,85,62,38,29.95,29.69,29.54,10,8,1,32,18,41,0.41,5,Rain-Thunderstorm,125
2013-4-15,62,51,40,52,44,35,100,73,46,30.03,29.82,29.68,10,7,2,23,9,29,0.10,6,Rain,258
2013-4-16,51,43,34,40,34,30,92,71,50,30.23,30.17,30.03,10,10,6,15,7,18,T,4,,355
2013-4-17,53,47,41,49,41,33,100,83,65,30.25,30.01,29.72,10,4,1,29,18,35,2.01,8,Rain-Thunderstorm,80
2013-4-18,62,49,36,59,48,30,93,85,76,29.82,29.58,29.41,10,6,2,33,19,39,1.08,8,Rain-Thunderstorm,167
2013-4-19,38,35,32,31,29,27,82,76,70,30.03,29.70,29.57,10,10,6,35,23,41,T,8,Rain-Snow,272
2013-4-20,47,38,29,30,27,23,92,67,41,30.38,30.25,30.06,10,10,6,14,6,16,0.00,2,,272
2013-4-21,59,47,35,41,34,26,70,60,50,30.44,30.33,30.24,10,10,10,29,18,35,0.00,3,,148
2013-4-22,68,58,48,48,38,34,89,62,34,30.25,30.12,29.99,10,10,9,23,13,28,0.02,4,Rain,172
2013-4-23,52,45,38,48,37,32,96,86,76,30.06,30.01,29.96,10,7,2,22,12,26,0.37,8,Rain,333
2013-4-24,52,43,34,32,30,27,82,60,38,30.12,30.09,30.04,10,10,7,25,12,30,T,4,,279
2013-4-25,54,44,33,37,28,19,92,59,26,30.30,30.24,30.10,10,10,10,26,13,33,T,1,,268
2013-4-26,68,54,39,45,40,30,70,56,42,30.29,30.24,30.20,10,10,10,30,16,37,0.00,3,,187
2013-4-27,66,54,41,48,44,40,92,68,44,30.26,30.15,29.99,10,8,2,17,6,23,0.00,4,,153
2013-4-28,73,58,43,50,46,43,100,68,35,29.98,29.90,29.81,10,7,1,13,5,18,0.00,2,,261
2013-4-29,80,65,50,58,53,47,89,67,45,29.87,29.78,29.67,10,9,6,25,15,31,0.00,0,,173
2013-4-30,86,75,63,59,53,45,78,52,25,29.88,29.75,29.68,10,10,9,28,16,37,0.00,0,,193